Vorticity
5 3 3 6 8 10 5 11 11 9 9 8 13 14 9 30 2 -1 8 8 9 11 11 14 11 16 11 11 15 9 6 0 -1 11 11 10 11 8
4 5 5 7 8 9 9 10 10 13 8 11 17 8 -4 -5 20 5 6 11 11 13 10 14 16 8 9 10 11 13 14 14 13 12 11 11 9 6
6 6 6 7 7 8 9 10 9 8 9 16 3 11 23 -11 9 28 2 12 12 11 15 18 9 7 8 7 8 9 10 10 11 10 10 9 6 6
3 7 7 8 9 10 10 10 10 9 6 16 19 -2 20 22 -11 7 9 13 14 13 16 12 7 7 7 8 8 9 10 10 10 10 9 7 6 5
8 4 4 10 10 11 11 12 11 10 10 11 6 29 2 6 4 -2 11 15 13 17 16 8 8 7 8 8 9 10 9 10 10 9 9 7 6 5
10 12 13 12 12 12 10 12 11 13 12 9 10 10 22 -8 19 9 13 14 17 17 9 8 8 9 9 10 9 9 10 10 9 8 8 8 6 6
11 11 11 11 12 10 11 11 12 11 9 9 9 26 4 13 12 12 15 15 17 10 8 8 9 10 11 10 10 10 9 8 8 9 8 8 7 7
8 9 10 11 11 10 11 12 11 11 11 11 10 13 15 13 13 15 16 18 9 7 8 10 10 10 11 9 9 9 9 9 9 8 8 8 7 8
8 9 12 13 13 13 12 13 13 12 13 13 13 12 11 14 15 19 16 10 8 8 9 10 11 11 8 8 8 8 9 8 8 8 9 8 7 7
8 12 13 13 14 15 13 13 12 14 12 13 12 13 14 14 18 14 10 9 9 10 9 11 11 8 7 7 7 8 9 9 8 8 9 9 7 7
15 13 13 16 14 15 14 14 14 12 13 15 13 14 14 17 13 9 9 8 10 11 11 10 10 7 7 7 8 9 9 8 8 9 9 8 9 8
14 19 24 21 15 15 13 13 15 14 13 16 13 13 18 13 10 9 9 9 9 11 11 9 7 6 7 7 9 9 8 8 8 8 8 8 9 9
13 20 28 22 16 14 14 13 14 14 13 14 14 18 13 9 9 9 9 10 10 9 9 8 7 7 7 9 8 9 8 8 9 9 8 9 9 9
12 21 26 17 15 14 14 14 14 14 14 16 16 13 11 8 9 10 10 10 10 9 9 8 7 8 8 10 9 9 9 9 9 9 10 10 10 9
13 14 20 13 15 13 14 14 16 15 17 15 12 11 8 8 10 10 9 10 10 8 9 9 9 9 10 9 9 8 8 8 9 10 11 10 10 9
17 15 13 12 17 13 14 14 15 14 14 12 11 9 7 10 9 10 11 10 9 9 10 8 9 9 8 7 7 8 9 11 11 12 12 11 11 9
15 18 15 15 18 15 12 14 13 13 12 11 8 9 10 9 9 10 10 10 9 8 7 9 8 7 5 5 8 13 13 13 12 14 13 12 10 10
15 19 14 13 17 20 13 10 12 14 10 11 11 10 3 6 7 10 10 8 6 8 9 7 5 3 5 5 5 12 14 13 14 14 13 12 10 9
17 14 13 12 18 26 16 15 15 4 6 7 7 11 11 12 12 12 7 3 6 8 7 7 6 4 7 4 5 9 13 14 14 13 12 11 11 7
16 15 12 13 18 20 20 20 24 9 8 4 7 3 4 3 11 11 -5 15 4 7 8 7 7 6 7 2 7 6 10 13 13 12 11 11 10 10
12 15 12 13 14 22 11 9 2 2 11 17 14 10 11 9 10 7 -0 10 8 6 10 9 3 8 7 -2 7 10 11 11 12 12 12 10 9 10
12 10 13 16 15 19 22 5 8 22 4 4 5 8 11 9 8 9 -0 7 -0 6 15 1 5 7 8 -5 11 16 12 11 12 11 12 12 10 10
11 12 10 13 15 12 7 19 11 2 6 11 17 12 10 10 10 10 9 8 -1 -2 11 9 5 4 13 -4 12 17 14 10 12 11 11 12 11 9
Height
3136 3136 3135 3136 3134 3134 3134 3133 3131 3128 3128 3128 3129 3130 3128 3126 3124 3125 3123 3121 3120 3118 3118 3118 3117 3118 3118 3119 3121 3123 3124 3124 3124 3123 3123 3122 3123 3122
3131 3130 3129 3129 3128 3126 3125 3125 3124 3123 3121 3121 3121 3121 3121 3119 3118 3118 3117 3115 3113 3113 3112 3112 3112 3112 3113 3114 3115 3117 3118 3118 3119 3119 3119 3119 3119 3119
3125 3123 3122 3121 3121 3119 3118 3117 3116 3115 3114 3112 3112 3113 3112 3112 3111 3110 3109 3107 3105 3105 3106 3107 3107 3108 3109 3110 3111 3112 3113 3113 3114 3114 3114 3114 3115 3115
3117 3116 3115 3113 3111 3110 3110 3108 3107 3107 3106 3106 3104 3105 3104 3104 3103 3103 3102 3101 3100 3099 3100 3101 3102 3103 3104 3105 3106 3107 3108 3109 3109 3109 3109 3110 3110 3110
3109 3107 3106 3105 3103 3101 3100 3100 3099 3098 3097 3096 3096 3095 3095 3097 3095 3095 3095 3094 3094 3094 3095 3098 3099 3099 3100 3099 3101 3102 3103 3104 3104 3104 3105 3105 3105 3105
3100 3098 3096 3095 3094 3093 3091 3091 3090 3089 3088 3088 3087 3089 3087 3088 3087 3087 3087 3086 3087 3089 3091 3093 3094 3095 3095 3095 3097 3097 3098 3099 3099 3100 3100 3100 3100 3101
3091 3089 3088 3086 3085 3084 3083 3081 3081 3080 3079 3079 3079 3079 3080 3080 3080 3080 3080 3081 3081 3084 3085 3087 3088 3089 3090 3091 3093 3093 3093 3094 3095 3095 3095 3096 3096 3096
3083 3081 3078 3076 3075 3073 3072 3072 3072 3071 3071 3070 3070 3071 3072 3072 3072 3072 3074 3075 3077 3079 3080 3082 3083 3084 3085 3086 3088 3089 3089 3089 3090 3090 3091 3091 3091 3091
3073 3070 3068 3066 3064 3063 3063 3063 3063 3062 3062 3062 3062 3062 3063 3065 3065 3066 3068 3070 3072 3073 3076 3077 3078 3079 3080 3082 3083 3083 3084 3084 3085 3085 3085 3085 3085 3085
3063 3060 3058 3056 3054 3053 3054 3054 3053 3054 3053 3053 3054 3055 3056 3057 3059 3061 3063 3065 3066 3069 3070 3072 3073 3074 3075 3078 3078 3079 3079 3080 3080 3079 3079 3079 3079 3078
3052 3049 3046 3045 3044 3044 3044 3045 3045 3045 3045 3048 3047 3049 3051 3051 3054 3056 3058 3060 3062 3064 3065 3066 3068 3069 3071 3072 3072 3073 3074 3074 3074 3074 3073 3073 3072 3072
3042 3038 3035 3033 3033 3035 3035 3036 3037 3038 3038 3041 3042 3043 3045 3046 3049 3051 3053 3055 3056 3058 3060 3062 3063 3065 3066 3066 3067 3067 3067 3067 3068 3067 3067 3066 3066 3065
3033 3029 3026 3025 3025 3027 3027 3027 3029 3031 3032 3034 3035 3038 3039 3042 3044 3046 3049 3050 3051 3053 3055 3057 3058 3059 3059 3061 3061 3061 3061 3061 3062 3061 3060 3060 3059 3058
3026 3021 3018 3018 3019 3020 3021 3021 3023 3024 3026 3028 3030 3033 3035 3036 3040 3042 3043 3045 3046 3048 3050 3052 3053 3053 3053 3055 3055 3055 3055 3055 3055 3054 3054 3053 3052 3051
3019 3016 3014 3014 3014 3014 3015 3015 3017 3018 3021 3023 3025 3028 3030 3032 3035 3038 3038 3041 3042 3043 3045 3047 3047 3047 3048 3049 3049 3049 3049 3048 3048 3047 3046 3045 3044 3044
3013 3011 3010 3009 3009 3009 3009 3010 3012 3014 3016 3018 3020 3024 3027 3029 3030 3032 3034 3036 3037 3038 3040 3041 3041 3043 3043 3042 3041 3041 3040 3040 3040 3039 3038 3037 3037 3036
3007 3005 3004 3003 3003 3003 3004 3005 3007 3009 3012 3013 3016 3019 3021 3023 3025 3027 3029 3031 3032 3034 3034 3036 3037 3038 3037 3036 3035 3033 3032 3031 3030 3031 3031 3030 3028 3027
3001 2999 2998 2998 2997 2997 2998 3000 3003 3005 3006 3009 3012 3014 3016 3019 3021 3022 3024 3025 3027 3029 3030 3032 3032 3032 3032 3031 3029 3026 3024 3023 3022 3022 3022 3023 3020 3017
2996 2993 2992 2992 2991 2991 2993 2996 2997 3000 3002 3006 3007 3009 3011 3013 3015 3016 3017 3019 3021 3023 3025 3026 3026 3025 3024 3023 3022 3019 3017 3016 3015 3015 3014 3014 3015 3011
2989 2987 2987 2986 2985 2986 2987 2989 2991 2994 2997 2999 3001 3003 3005 3007 3009 3010 3011 3013 3015 3017 3018 3017 3017 3016 3016 3016 3014 3011 3009 3008 3007 3006 3006 3006 3006 3005
2983 2982 2981 2980 2979 2980 2982 2985 2987 2989 2990 2993 2995 2996 2998 3000 3002 3003 3004 3006 3008 3009 3010 3009 3007 3009 3008 3007 3007 3003 2999 2999 2998 2998 2998 2998 2997 2997
2978 2976 2975 2974 2974 2974 2975 2977 2980 2982 2984 2986 2987 2989 2990 2991 2994 2995 2996 2998 3000 3000 3000 2999 2999 3000 2999 2998 2997 2995 2993 2988 2988 2989 2990 2989 2989 2989
2972 2971 2970 2969 2968 2968 2969 2970 2972 2975 2978 2980 2981 2982 2983 2984 2986 2987 2988 2989 2990 2991 2991 2991 2989 2990 2990 2989 2986 2985 2984 2982 2980 2979 2979 2978 2979 2979